Wind_Speed
44 45 46 45 44 43 42 40 40 41 42 42 43 46 47 48 51 53 52 49 49 48 48 48 49 49 48 47 46 45 44 43 43 43 42 41 40 40 39 38 37 37 36 36
41 42 42 43 43 42 40 39 38 38 38 40 41 44 46 48 49 49 50 49 47 47 45 45 46 48 48 47 47 46 45 45 44 44 44 43 42 41 40 40 39 39 38 38
36 38 40 41 41 40 39 37 36 36 36 38 39 42 45 46 47 48 47 45 45 45 44 44 45 45 46 46 46 47 46 45 45 45 44 44 43 42 41 41 40 40 40 40
34 36 39 39 39 38 37 36 36 35 36 37 38 40 41 43 46 46 44 43 41 42 43 43 43 44 45 45 46 46 46 46 46 45 45 44 44 43 42 42 42 41 42 42
32 33 35 37 36 35 34 34 34 34 35 35 36 37 36 39 42 42 42 42 41 40 41 41 42 43 44 45 45 46 46 46 46 46 46 45 45 44 43 43 43 43 44 44
30 31 32 34 34 34 33 33 33 33 34 34 33 33 32 32 34 36 37 40 41 41 41 42 42 42 43 44 45 45 46 47 47 47 47 46 46 46 45 45 45 45 45 45
29 30 31 33 34 34 33 33 33 33 34 33 32 32 28 28 31 33 35 37 40 42 43 43 43 43 44 44 45 45 46 47 47 47 47 47 47 46 46 46 46 46 46 46
27 28 30 32 33 32 32 32 32 32 32 31 30 31 27 27 29 32 35 37 39 41 43 44 44 45 46 46 46 46 46 46 47 47 47 47 47 47 47 46 46 46 46 47
24 25 28 31 31 31 31 31 31 31 31 30 30 28 27 27 29 32 35 37 38 40 42 44 45 46 47 47 47 47 47 47 47 47 47 47 47 48 47 47 47 47 47 48
22 23 26 28 29 30 30 29 29 30 30 29 28 26 25 25 28 31 34 36 38 39 41 43 44 45 46 47 48 48 48 48 48 47 47 47 47 47 47 46 46 47 47 48
20 22 24 26 29 28 27 28 29 29 29 28 27 25 24 25 27 28 31 34 36 38 40 42 44 45 46 47 47 47 47 47 47 48 48 47 47 47 47 47 47 47 48 48
19 20 22 24 26 26 27 27 28 29 29 28 27 24 23 24 25 26 28 31 33 35 37 39 41 43 44 45 45 46 46 46 47 47 47 47 47 47 47 46 47 46 46 46
19 20 21 24 26 27 27 27 27 27 28 28 27 24 22 23 25 26 27 29 31 33 34 36 38 40 41 42 43 43 44 44 45 45 45 45 45 45 45 45 45 44 43 42
18 19 21 23 24 25 26 26 27 29 29 28 25 22 20 22 25 27 27 28 29 32 33 34 35 37 39 39 40 41 41 41 42 42 42 42 42 42 42 42 41 40 40 39
18 19 20 22 23 25 25 26 27 29 28 28 24 23 21 24 27 27 28 28 29 30 31 32 33 35 36 38 39 39 39 40 40 40 40 40 39 39 38 38 37 37 36 35
19 19 20 21 23 24 24 24 25 26 26 26 25 22 21 25 27 27 28 29 29 30 31 32 33 34 34 36 37 37 37 37 37 37 37 37 36 35 35 35 34 33 32 32
17 18 20 21 22 23 22 22 24 25 24 26 25 21 24 26 26 26 27 29 29 31 32 32 33 33 34 35 35 35 35 34 34 33 33 33 33 33 32 31 30 30 29 29
16 17 18 19 21 21 20 21 23 23 23 24 24 22 24 26 26 26 26 27 28 29 31 32 31 32 32 32 32 32 32 32 32 31 31 31 30 30 29 28 28 27 27 26
16 17 17 18 19 19 20 20 21 21 21 23 22 22 23 24 24 23 24 26 26 27 28 29 28 28 29 29 29 29 30 30 30 29 28 28 28 27 27 26 26 25 24 24
17 18 18 17 17 17 18 19 19 20 21 21 21 20 21 21 21 21 25 26 26 26 26 26 26 26 27 27 27 27 27 27 27 26 26 26 26 25 25 24 23 23 22 22
19 19 19 18 18 17 18 18 19 20 20 19 20 19 19 19 20 22 23 23 24 24 24 24 25 25 25 25 25 25 26 25 25 25 25 25 24 24 23 22 22 21 21 22
20 20 20 20 19 19 19 19 19 19 19 19 19 18 18 18 19 20 21 21 21 22 22 23 23 24 24 24 24 24 24 24 24 24 24 24 24 23 23 22 22 22 22 23
21 21 21 21 21 21 21 21 21 20 20 20 19 19 18 18 18 19 19 20 20 20 21 21 21 21 23 23 24 24 24 24 23 23 23 23 23 23 23 22 23 23 23 24
22 23 23 22 22 23 23 23 22 22 21 21 21 20 20 20 19 19 20 20 20 20 21 21 21 21 22 23 23 23 23 24 24 24 24 24 24 24 24 24 24 25 25 26
25 25 25 25 25 25 24 24 24 24 23 23 23 22 22 21 21 20 20 20 20 20 21 21 21 22 22 23 23 24 24 24 24 25 25 25 25 25 25 26 26 27 28 28
27 27 28 27 27 27 26 27 27 26 26 25 25 24 24 23 22 22 21 21 21 21 22 22 22 23 23 24 24 24 25 25 26 26 26 27 27 27 28 28 28 29 30 30
Wind_Direction
190 196 201 203 205 208 211 215 217 220 224 227 227 225 224 223 222 221 222 225 227 229 232 233 234 235 235 236 238 239 240 243 246 250 252 255 258 261 263 266 269 271 274 275
188 195 197 200 203 206 209 212 216 219 222 227 228 228 228 226 224 223 223 225 226 229 232 233 234 235 236 238 239 241 242 244 246 249 252 254 257 259 262 264 267 270 272 274
187 191 194 198 202 206 208 211 215 218 221 225 229 230 230 229 228 226 225 226 227 230 232 234 235 236 236 238 240 242 243 245 247 249 252 254 257 259 262 265 267 269 272 274
183 189 192 196 200 204 208 211 215 218 221 225 229 233 232 234 234 233 231 231 231 232 234 236 237 238 239 239 240 242 244 246 248 250 253 255 257 260 262 265 267 270 272 274
182 186 190 195 198 202 206 210 215 219 223 226 229 234 231 236 238 238 238 238 236 236 238 238 239 240 240 240 241 242 244 246 248 250 253 255 257 260 262 265 267 270 272 273
182 186 189 193 196 201 205 209 214 219 223 227 229 235 231 234 239 239 240 240 239 238 238 238 239 241 242 242 242 243 244 246 248 251 253 255 257 260 263 265 267 269 271 273
182 188 191 193 196 200 204 210 214 219 224 229 230 236 234 231 235 237 237 238 239 238 239 239 239 241 242 243 244 245 246 247 249 251 254 256 258 260 263 265 266 268 270 273
184 190 193 196 199 202 205 212 218 224 228 232 234 237 235 233 234 236 237 237 238 238 239 239 240 241 243 244 245 246 247 249 250 252 254 257 259 261 263 265 267 269 271 274
189 193 196 199 203 205 208 214 220 227 232 235 236 238 239 238 236 236 238 238 238 238 238 238 240 241 243 244 245 247 248 250 251 253 255 257 259 261 263 265 267 270 272 275
191 196 200 203 206 209 213 218 223 228 233 236 237 238 238 237 239 240 240 241 241 240 240 240 240 241 242 244 245 247 248 250 251 253 255 257 259 261 263 265 268 270 273 275
196 200 203 206 209 211 215 220 225 229 233 238 240 239 241 243 243 243 243 243 242 242 242 242 242 242 242 244 245 247 249 250 252 253 255 257 259 262 264 266 269 271 273 276
202 206 209 212 213 216 220 222 227 232 237 241 245 242 245 247 248 247 246 244 243 243 244 244 244 244 245 245 246 248 250 251 252 253 255 257 259 261 264 267 269 272 274 276
210 213 215 217 219 221 226 228 233 238 242 244 245 246 248 250 249 248 246 244 242 242 243 244 244 245 245 246 248 249 250 252 253 254 256 258 260 262 265 267 270 271 273 275
219 222 224 225 227 228 231 233 236 241 245 248 250 252 254 252 248 246 245 244 243 241 241 243 244 246 246 247 248 249 251 253 255 255 257 259 261 263 266 267 269 271 272 274
225 227 228 229 230 231 233 236 240 244 248 252 252 252 250 249 248 246 245 243 243 241 241 242 243 245 247 247 248 250 252 254 256 257 258 260 262 263 265 266 268 269 271 273
229 231 231 232 234 235 237 241 244 246 250 254 254 252 251 248 247 247 244 242 240 240 241 242 242 244 245 247 248 250 252 254 256 257 257 258 259 261 262 264 266 268 269 272
234 235 235 236 239 241 242 244 247 249 251 254 255 254 251 251 249 249 247 244 242 241 242 243 243 245 246 246 247 248 250 252 254 255 255 256 257 258 260 261 264 266 268 271
239 240 242 243 243 247 248 247 250 252 253 255 255 255 254 253 251 250 249 247 246 246 245 246 246 247 247 247 247 248 249 250 251 251 253 254 255 256 258 260 262 264 267 269
240 243 246 246 246 246 250 250 251 251 252 255 257 256 257 255 253 251 249 246 246 247 248 247 247 247 246 245 245 245 246 247 248 250 251 253 254 255 257 259 260 263 266 269
244 247 250 250 250 247 246 249 250 251 252 254 258 259 259 256 252 247 245 244 246 247 248 247 246 246 245 244 244 244 245 245 246 248 250 251 252 255 256 257 259 262 265 269
245 248 250 252 252 251 249 250 251 252 255 256 258 259 258 255 250 247 249 248 248 247 248 248 245 244 244 244 244 245 245 244 246 248 249 251 252 254 255 257 259 262 266 271
247 249 250 252 253 253 250 251 252 254 256 256 257 258 257 255 252 250 251 251 250 248 247 245 244 244 244 244 245 246 245 245 246 248 249 251 253 253 255 257 261 265 269 274
249 250 251 251 253 252 251 252 253 253 255 256 256 256 256 255 255 253 251 250 249 247 247 245 244 245 246 247 248 247 246 246 247 249 251 253 254 255 256 259 263 268 272 276
249 250 251 251 251 251 251 252 253 254 255 256 256 256 256 256 256 255 253 250 249 248 246 246 246 247 249 249 250 250 250 249 250 251 254 256 257 259 260 263 267 270 273 277
251 251 251 251 251 253 254 255 254 255 256 256 256 256 255 255 256 254 252 251 250 249 247 248 248 247 249 250 252 253 253 254 254 255 257 258 260 262 264 267 270 273 276 279
254 255 255 254 254 255 255 256 256 255 255 256 255 254 254 254 254 254 253 252 251 250 251 252 251 251 252 253 254 255 256 258 258 259 260 261 263 265 267 270 272 275 278 281
Height
5621 5633 5642 5654 5665 5674 5682 5690 5697 5704 5709 5715 5722 5728 5732 5737 5744 5750 5756 5762 5768 5774 5779 5785 5790 5794 5799 5803 5807 5811 5815 5817 5820 5822 5825 5826 5828 5829 5830 5831 5831 5832 5832 5832
5622 5632 5643 5652 5661 5669 5677 5685 5692 5699 5705 5710 5715 5719 5724 5730 5738 5744 5749 5755 5762 5767 5772 5777 5782 5786 5791 5795 5799 5803 5806 5809 5812 5814 5817 5819 5821 5822 5823 5824 5825 5825 5825 5825
5622 5633 5641 5650 5658 5667 5675 5682 5689 5695 5700 5704 5709 5713 5719 5726 5732 5737 5744 5750 5755 5761 5766 5770 5775 5779 5783 5787 5791 5794 5797 5801 5803 5806 5808 5811 5813 5814 5816 5816 5817 5817 5817 5817
5623 5631 5640 5648 5657 5665 5673 5679 5685 5690 5695 5699 5705 5709 5716 5721 5726 5733 5739 5745 5750 5755 5759 5763 5767 5771 5775 5779 5782 5786 5789 5792 5795 5797 5800 5802 5804 5806 5807 5808 5808 5808 5808 5808
5625 5632 5640 5648 5656 5663 5670 5676 5681 5686 5690 5695 5700 5704 5713 5716 5722 5729 5735 5739 5743 5747 5751 5755 5759 5763 5767 5770 5774 5778 5781 5784 5786 5789 5791 5793 5795 5797 5798 5799 5799 5799 5799 5799
5627 5633 5640 5647 5654 5661 5667 5673 5678 5682 5686 5692 5696 5700 5707 5713 5719 5723 5726 5730 5734 5738 5743 5746 5750 5755 5758 5762 5765 5769 5772 5775 5777 5780 5782 5784 5786 5788 5789 5790 5791 5790 5790 5790
5628 5634 5640 5646 5652 5658 5664 5670 5675 5678 5682 5688 5692 5695 5704 5709 5712 5715 5718 5721 5725 5729 5734 5738 5742 5746 5749 5753 5756 5759 5762 5765 5768 5770 5773 5775 5777 5778 5780 5780 5781 5781 5781 5780
5629 5635 5640 5646 5651 5657 5662 5668 5673 5677 5680 5684 5688 5691 5700 5703 5705 5707 5710 5713 5717 5721 5725 5729 5733 5737 5740 5743 5747 5750 5753 5756 5758 5761 5763 5765 5767 5768 5770 5770 5771 5771 5771 5770
5630 5635 5640 5645 5650 5655 5659 5664 5669 5673 5676 5680 5683 5688 5693 5696 5698 5700 5702 5705 5709 5712 5716 5720 5723 5727 5731 5734 5737 5740 5743 5746 5749 5751 5753 5755 5757 5758 5759 5760 5761 5761 5760 5760
5632 5636 5640 5644 5649 5653 5657 5662 5666 5669 5672 5675 5679 5683 5688 5689 5691 5693 5695 5698 5701 5704 5707 5711 5714 5717 5721 5724 5727 5730 5733 5736 5738 5741 5743 5745 5747 5748 5749 5750 5750 5750 5750 5749
5632 5636 5640 5643 5647 5651 5655 5659 5662 5665 5668 5671 5674 5681 5681 5683 5684 5686 5688 5690 5693 5696 5699 5702 5705 5708 5711 5714 5718 5720 5723 5726 5729 5731 5733 5735 5737 5738 5739 5740 5740 5740 5739 5739
5632 5635 5638 5642 5646 5648 5652 5655 5658 5662 5664 5666 5669 5676 5675 5677 5678 5679 5681 5683 5686 5688 5691 5693 5696 5699 5702 5705 5708 5711 5714 5716 5719 5721 5723 5725 5727 5728 5729 5729 5730 5729 5729 5728
5631 5634 5637 5640 5644 5646 5648 5652 5654 5657 5659 5660 5662 5670 5669 5670 5671 5672 5674 5676 5678 5680 5683 5685 5688 5691 5693 5696 5699 5702 5705 5707 5709 5711 5713 5715 5717 5718 5719 5719 5719 5719 5719 5718
5629 5632 5635 5638 5640 5642 5645 5648 5650 5651 5652 5655 5658 5662 5664 5664 5664 5665 5667 5669 5671 5673 5675 5677 5680 5682 5685 5688 5690 5693 5696 5698 5700 5702 5704 5705 5707 5708 5709 5709 5709 5709 5709 5708
5627 5629 5631 5633 5635 5638 5640 5643 5644 5646 5648 5650 5653 5654 5657 5656 5657 5658 5660 5662 5664 5666 5668 5670 5672 5674 5677 5679 5682 5684 5687 5689 5691 5693 5694 5696 5697 5698 5699 5700 5700 5700 5699 5699
5623 5626 5628 5630 5631 5633 5636 5638 5639 5641 5643 5644 5646 5648 5650 5649 5650 5651 5653 5655 5657 5659 5660 5662 5664 5666 5669 5671 5674 5676 5678 5680 5682 5684 5685 5687 5688 5689 5690 5691 5691 5691 5690 5690
5620 5622 5624 5626 5627 5629 5632 5634 5634 5636 5638 5638 5639 5643 5641 5642 5643 5645 5646 5648 5649 5651 5653 5655 5657 5659 5661 5663 5665 5668 5670 5672 5674 5675 5677 5678 5680 5681 5681 5682 5682 5682 5682 5682
5617 5618 5620 5622 5624 5625 5630 5629 5630 5631 5632 5632 5634 5635 5635 5636 5637 5638 5640 5641 5643 5644 5646 5648 5650 5652 5654 5656 5658 5660 5662 5664 5666 5667 5669 5670 5671 5672 5673 5674 5674 5674 5674 5674
5613 5615 5616 5618 5619 5621 5624 5624 5624 5625 5627 5627 5628 5629 5629 5629 5631 5633 5633 5634 5636 5637 5639 5641 5643 5645 5646 5648 5650 5652 5654 5656 5658 5660 5661 5663 5664 5665 5666 5666 5667 5667 5667 5667
5609 5611 5613 5613 5614 5617 5619 5619 5619 5621 5621 5622 5622 5623 5623 5624 5626 5627 5626 5627 5629 5631 5632 5634 5636 5638 5640 5642 5644 5646 5647 5649 5651 5653 5654 5656 5657 5658 5659 5659 5659 5659 5660 5659
5605 5606 5608 5608 5609 5611 5613 5613 5614 5617 5617 5617 5617 5618 5618 5619 5620 5621 5621 5622 5624 5625 5627 5628 5630 5632 5634 5636 5638 5639 5641 5643 5645 5646 5648 5649 5650 5651 5652 5652 5652 5653 5653 5652
5600 5602 5603 5604 5605 5609 5607 5608 5609 5611 5611 5611 5612 5613 5613 5614 5615 5615 5616 5617 5619 5620 5621 5623 5625 5626 5628 5630 5632 5633 5635 5637 5639 5640 5641 5643 5644 5644 5645 5645 5646 5646 5645 5645
5595 5597 5598 5600 5602 5601 5602 5602 5604 5605 5606 5606 5607 5608 5608 5609 5610 5611 5612 5613 5614 5615 5616 5618 5619 5621 5623 5624 5626 5628 5629 5631 5632 5634 5635 5636 5637 5638 5638 5639 5639 5639 5638 5638
5590 5591 5592 5593 5595 5595 5596 5597 5598 5599 5600 5601 5602 5603 5604 5604 5605 5606 5607 5608 5609 5610 5611 5613 5614 5616 5617 5619 5620 5622 5624 5625 5626 5628 5629 5630 5630 5631 5631 5631 5632 5631 5631 5630
5584 5584 5585 5587 5589 5589 5590 5591 5592 5593 5594 5595 5596 5597 5598 5599 5600 5601 5602 5603 5604 5605 5606 5607 5609 5610 5612 5613 5615 5616 5617 5619 5620 5621 5622 5623 5623 5624 5624 5624 5624 5624 5623 5622
5576 5577 5578 5580 5581 5583 5584 5584 5585 5586 5587 5588 5590 5591 5592 5593 5594 5595 5596 5597 5598 5600 5601 5602 5603 5605 5606 5608 5609 5610 5611 5612 5613 5614 5615 5616 5616 5616 5617 5616 5616 5616 5615 5614